Weather History for Port Angeles, WA

Change the Weather History Date:

Saturday, September 7, 2013

  Actual Average Record
Temperature  
Mean Temperature 64 °F -  
Max Temperature 70 °F 66 °F 82 °F (2011)
Min Temperature 57 °F 49 °F 40 °F (1985)
Degree Days  
Heating Degree Days 1    
Growing Degree Days 14 (Base 50)    
Moisture  
Dew Point 57 °F    
Average Humidity 83    
Maximum Humidity 93    
Minimum Humidity 68    
Precipitation  
Precipitation 0.00 in - - ()
Sea Level Pressure  
Sea Level Pressure 30.08 in    
Wind  
Wind Speed 5 mph (WNW)    
Max Wind Speed 7 mph    
Max Gust Speed -    
Visibility 10 miles    
Events      
Averages and records for this station are not official NWS values.
T = Trace of Precipitation, MM = Missing Value Source: NWS Daily Summary

Daily Weather History Graph

Daily Weather History Graph

Search for Another Location

Airport:

Trip Planner

Search our weather history database for the weather conditions in past years. The results will help you decide how hot, cold, wet, or windy it might be!

Date:

Astronomy

Sep. 07, 2013 Rise Set
Actual Time 6:40 AM PDT 7:42 PM PDT
Civil Twilight 6:08 AM PDT 8:13 PM PDT
Nautical Twilight 5:30 AM PDT 8:51 PM PDT
Astronomical Twilight 4:49 AM PDT 9:32 PM PDT
Moon 9:15 AM PDT (9/7) 8:27 PM PDT (9/7)
Length of Visible Light 14h 05m
Length of Day
13h 01m
Waxing Crescent, 6% of the Moon is Illuminated
Sep 7
Waxing Crescent
Sep 12
First Quarter
Sep 19
Full
Sep 26
Last Quarter
Oct 4
New

Hourly Weather History & Observations

Time (PDT) Temp. Dew Point Humidity Pressure Visibility Wind Dir Wind Speed Gust Speed Precip Events Conditions
12:53 AM 62.1 °F 59.0 °F 90% 30.10 in 10.0 mi West 5.8 mph - N/A   Overcast
1:10 AM 62.1 °F 59.0 °F 90% 30.10 in 10.0 mi West 6.9 mph - N/A   Overcast
1:53 AM 62.1 °F 59.0 °F 90% 30.10 in 10.0 mi WNW 5.8 mph - N/A   Overcast
2:53 AM 62.1 °F 57.9 °F 86% 30.09 in 10.0 mi West 6.9 mph - N/A   Overcast
3:33 AM 62.1 °F 57.9 °F 86% 30.09 in 10.0 mi West 4.6 mph - N/A   Overcast
3:53 AM 62.1 °F 57.9 °F 86% 30.09 in 10.0 mi WSW 4.6 mph - N/A   Overcast
4:53 AM 63.0 °F 57.9 °F 84% 30.09 in 10.0 mi WSW 4.6 mph - N/A   Overcast
5:53 AM 62.1 °F 57.0 °F 84% 30.09 in 10.0 mi WSW 5.8 mph - N/A   Overcast
6:53 AM 61.0 °F 57.0 °F 87% 30.09 in 10.0 mi West 3.5 mph - N/A   Overcast
7:53 AM 62.1 °F 57.9 °F 86% 30.09 in 10.0 mi SW 5.8 mph - N/A   Overcast
8:53 AM 63.0 °F 57.0 °F 81% 30.09 in 10.0 mi West 4.6 mph - N/A   Overcast
9:53 AM 64.0 °F 57.0 °F 78% 30.09 in 10.0 mi West 3.5 mph - N/A   Overcast
10:53 AM 60.1 °F 57.0 °F 90% 30.10 in 10.0 mi North 4.6 mph - N/A   Overcast
11:53 AM 64.0 °F 57.9 °F 80% 30.09 in 10.0 mi NW 5.8 mph - N/A   Overcast
12:53 PM 66.0 °F 57.9 °F 75% 30.08 in 10.0 mi North 6.9 mph - N/A   Overcast
1:53 PM 66.0 °F 57.0 °F 73% 30.08 in 10.0 mi North 5.8 mph - N/A   Overcast
2:53 PM 66.0 °F 57.9 °F 75% 30.08 in 10.0 mi Variable 3.5 mph - N/A   Overcast
3:45 PM 69.1 °F 57.9 °F 68% 30.07 in 10.0 mi NE 3.5 mph - N/A   Partly Cloudy
3:53 PM 66.9 °F 57.9 °F 73% 30.07 in 10.0 mi North 3.5 mph - N/A   Scattered Clouds
4:53 PM 69.1 °F 57.9 °F 68% 30.06 in 10.0 mi NE 5.8 mph - N/A   Clear
5:53 PM 69.1 °F 57.9 °F 68% 30.04 in 10.0 mi NE 4.6 mph - N/A   Clear
6:53 PM 61.0 °F 57.0 °F 87% 30.06 in 10.0 mi NW 6.9 mph - N/A   Clear
7:53 PM 59.0 °F 57.0 °F 93% 30.06 in 10.0 mi West 3.5 mph - N/A   Clear
8:53 PM 59.0 °F 55.9 °F 90% 30.07 in 10.0 mi WSW 3.5 mph - N/A   Clear
9:53 PM 59.0 °F 55.9 °F 90% 30.08 in 10.0 mi West 3.5 mph - N/A   Clear
10:53 PM 59.0 °F 55.9 °F 90% 30.07 in 10.0 mi Calm Calm - N/A   Clear
11:53 PM 57.9 °F 55.0 °F 90% 30.08 in 10.0 mi West 5.8 mph - N/A   Clear